TimePST,TemperatureF,Dew PointF,Humidity,Sea Level PressureIn,VisibilityMPH,Wind Direction,Wind SpeedMPH,Gust SpeedMPH,PrecipitationIn,Events,Conditions,WindDirDegrees,DateUTC
12:28 AM,28.4,28.4,100,30.44,2.5,Variable,1.2,-,N/A,,Clear,0,2013-01-01 08:28:00
12:33 AM,28.4,26.6,93,30.45,1.5,North,3.5,-,N/A,,Clear,360,2013-01-01 08:33:00
12:34 AM,28.4,26.6,93,30.45,1.8,North,3.5,-,N/A,,Partly Cloudy,10,2013-01-01 08:34:00
12:39 AM,28.4,26.6,93,30.45,2.0,North,5.8,-,N/A,,Scattered Clouds,10,2013-01-01 08:39:00
12:43 AM,26.6,26.6,100,30.45,1.0,NNE,4.6,-,N/A,,Light Freezing Drizzle,20,2013-01-01 08:43:00
12:44 AM,26.6,26.6,100,30.45,1.0,NNE,4.6,-,N/A,,Mist,30,2013-01-01 08:44:00
12:49 AM,26.6,26.6,100,30.45,0.5,NNE,4.6,-,N/A,Fog,Light Freezing Fog,30,2013-01-01 08:49:00
12:54 AM,26.6,26.6,100,30.45,0.5,NNE,2.3,-,N/A,Fog,Light Freezing Fog,20,2013-01-01 08:54:00
12:58 AM,26.8,26.6,99,30.48,0.5,North,3.5,-,0.00,Fog,Light Freezing Fog,10,2013-01-01 08:58:00
1:13 AM,28.4,26.6,93,30.46,0.5,ENE,1.2,-,N/A,Fog,Light Freezing Fog,70,2013-01-01 09:13:00
1:18 AM,26.6,26.6,100,30.45,1.0,East,2.3,-,N/A,,Mist,90,2013-01-01 09:18:00
1:23 AM,26.6,26.6,100,30.45,0.8,Calm,Calm,-,N/A,,Mist,0,2013-01-01 09:23:00
1:28 AM,26.6,26.6,100,30.45,0.5,ENE,1.2,-,N/A,Fog,Light Freezing Fog,60,2013-01-01 09:28:00
1:33 AM,26.6,26.6,100,30.46,0.5,NNW,2.3,-,N/A,Fog,Light Freezing Fog,340,2013-01-01 09:33:00
1:38 AM,26.6,26.6,100,30.46,0.2,North,2.3,-,N/A,Fog,Light Freezing Fog,350,2013-01-01 09:38:00
1:43 AM,26.6,26.6,100,30.46,0.2,Calm,Calm,-,N/A,Fog,Light Freezing Fog,0,2013-01-01 09:43:00
1:58 AM,27.3,27.1,99,30.50,0.2,Calm,Calm,-,N/A,Fog,Light Freezing Fog,0,2013-01-01 09:58:00
2:03 AM,26.6,26.6,100,30.46,0.2,Calm,Calm,-,N/A,Fog,Light Freezing Fog,0,2013-01-01 10:03:00
2:13 AM,26.6,26.6,100,30.47,0.2,North,-9999.0,-,N/A,Fog,Light Freezing Fog,0,2013-01-01 10:13:00
2:18 AM,26.6,26.6,100,30.47,0.5,Variable,2.3,-,N/A,Fog,Light Freezing Fog,0,2013-01-01 10:18:00
2:23 AM,26.6,26.6,100,30.47,0.8,Variable,2.3,-,N/A,,Mist,0,2013-01-01 10:23:00
2:28 AM,26.6,26.6,100,30.47,2.0,SSE,2.3,-,N/A,,Partly Cloudy,160,2013-01-01 10:28:00
2:33 AM,26.6,26.6,100,30.48,3.0,Variable,2.3,-,N/A,,Clear,0,2013-01-01 10:33:00
2:58 AM,26.6,26.6,100,30.51,2.0,SSE,1.2,-,N/A,,Clear,160,2013-01-01 10:58:00
2:59 AM,26.6,26.6,100,30.48,2.0,Calm,Calm,-,N/A,,Partly Cloudy,0,2013-01-01 10:59:00
3:04 AM,26.6,26.6,100,30.48,1.2,Calm,Calm,-,N/A,,Scattered Clouds,0,2013-01-01 11:04:00
3:07 AM,26.6,26.6,100,30.48,1.0,Calm,Calm,-,N/A,,Light Freezing Drizzle,0,2013-01-01 11:07:00
3:17 AM,28.4,26.6,93,30.47,0.8,Calm,Calm,-,N/A,,Light Freezing Drizzle,0,2013-01-01 11:17:00
3:18 AM,28.4,26.6,93,30.47,0.8,Calm,Calm,-,N/A,,Mist,0,2013-01-01 11:18:00
3:28 AM,28.4,26.6,93,30.47,0.8,Calm,Calm,-,N/A,,Mostly Cloudy,0,2013-01-01 11:28:00
3:33 AM,28.4,28.4,100,30.47,0.5,Calm,Calm,-,N/A,Fog,Light Freezing Fog,0,2013-01-01 11:33:00
3:43 AM,28.4,28.4,100,30.46,0.5,Calm,Calm,-,N/A,Fog,Light Freezing Fog,0,2013-01-01 11:43:00
3:48 AM,28.4,28.4,100,30.46,0.5,Calm,Calm,-,N/A,Fog,Light Freezing Fog,0,2013-01-01 11:48:00
3:53 AM,28.4,28.4,100,30.46,0.2,Calm,Calm,-,N/A,Fog,Light Freezing Fog,0,2013-01-01 11:53:00
3:58 AM,28.4,28.4,100,30.48,0.2,Variable,1.2,-,0.00,Fog,Light Freezing Fog,0,2013-01-01 11:58:00
4:08 AM,26.6,26.6,100,30.46,0.2,Calm,Calm,-,N/A,Fog,Light Freezing Fog,0,2013-01-01 12:08:00
4:13 AM,26.6,26.6,100,30.46,0.2,Calm,Calm,-,N/A,Fog,Light Freezing Fog,0,2013-01-01 12:13:00
4:18 AM,26.6,26.6,100,30.46,0.2,North,2.3,-,N/A,Fog,Light Freezing Fog,350,2013-01-01 12:18:00
4:23 AM,26.6,26.6,100,30.46,0.2,North,2.3,-,N/A,Fog,Light Freezing Fog,360,2013-01-01 12:23:00
4:28 AM,26.6,26.6,100,30.46,0.2,Calm,Calm,-,N/A,Fog,Light Freezing Fog,0,2013-01-01 12:28:00
4:33 AM,26.6,26.6,100,30.46,0.2,Calm,Calm,-,N/A,Fog,Light Freezing Fog,0,2013-01-01 12:33:00
4:48 AM,26.6,26.6,100,30.45,0.2,SSE,2.3,-,N/A,Fog,Light Freezing Fog,160,2013-01-01 12:48:00
4:53 AM,26.6,24.8,93,30.45,0.8,South,2.3,-,N/A,,Mist,170,2013-01-01 12:53:00
4:58 AM,24.8,24.8,100,30.47,0.8,SSE,2.3,-,N/A,,Mist,160,2013-01-01 12:58:00
5:02 AM,24.8,24.8,100,30.44,0.5,South,2.3,-,N/A,Fog,Light Freezing Drizzle,170,2013-01-01 13:02:00
5:12 AM,24.8,24.8,100,30.44,0.5,South,3.5,-,N/A,Fog,Light Freezing Drizzle,190,2013-01-01 13:12:00
5:22 AM,26.6,24.8,93,30.44,0.2,South,3.5,-,N/A,Fog,Light Freezing Drizzle,190,2013-01-01 13:22:00
5:27 AM,24.8,24.8,100,30.44,0.5,South,3.5,-,N/A,Fog,Light Freezing Drizzle,180,2013-01-01 13:27:00
5:37 AM,24.8,23.0,93,30.44,0.8,SSW,2.3,-,N/A,,Light Freezing Drizzle,210,2013-01-01 13:37:00
5:42 AM,24.8,23.0,93,30.44,1.2,South,1.2,-,N/A,,Light Freezing Drizzle,190,2013-01-01 13:42:00
5:52 AM,24.8,24.8,100,30.44,2.0,South,2.3,-,N/A,,Light Freezing Drizzle,180,2013-01-01 13:52:00
5:57 AM,24.8,23.0,93,30.44,2.5,SSE,2.3,-,N/A,,Light Freezing Drizzle,160,2013-01-01 13:57:00
5:58 AM,24.4,23.9,98,30.47,2.5,SSE,2.3,-,0.00,,Light Freezing Drizzle,160,2013-01-01 13:58:00
6:03 AM,24.8,23.0,93,30.44,4.0,SSE,1.2,-,N/A,,Light Freezing Drizzle,160,2013-01-01 14:03:00
6:58 AM,23.0,23.0,100,30.47,1.5,NNE,1.2,-,0.00,,Light Freezing Drizzle,30,2013-01-01 14:58:00
7:08 AM,23.0,23.0,100,30.43,4.0,Calm,Calm,-,N/A,,Light Freezing Drizzle,0,2013-01-01 15:08:00
7:33 AM,24.8,23.0,93,30.44,1.5,Calm,Calm,-,N/A,,Light Freezing Drizzle,0,2013-01-01 15:33:00
7:38 AM,24.8,23.0,93,30.44,1.0,SE,2.3,-,N/A,,Light Freezing Drizzle,130,2013-01-01 15:38:00
7:43 AM,23.0,23.0,100,30.44,1.8,ESE,2.3,-,N/A,,Light Freezing Drizzle,110,2013-01-01 15:43:00
7:48 AM,23.0,23.0,100,30.44,5.0,East,2.3,-,N/A,,Light Freezing Drizzle,90,2013-01-01 15:48:00
7:58 AM,23.0,22.5,98,30.48,5.0,Calm,Calm,-,0.00,,Light Freezing Drizzle,0,2013-01-01 15:58:00
8:58 AM,25.0,24.4,98,30.52,6.0,Calm,Calm,-,0.00,,Light Freezing Drizzle,0,2013-01-01 16:58:00
9:58 AM,30.2,30.0,99,30.51,5.0,South,3.5,-,0.00,,Light Freezing Drizzle,190,2013-01-01 17:58:00
10:10 AM,32.0,32.0,100,30.48,6.0,SW,2.3,-,N/A,,Clear,230,2013-01-01 18:10:00
10:58 AM,32.9,32.7,99,30.51,10.0,North,2.3,-,0.00,,Clear,360,2013-01-01 18:58:00
11:58 AM,37.0,36.9,99,30.48,10.0,Variable,2.3,-,N/A,,Clear,0,2013-01-01 19:58:00
12:58 PM,40.1,32.2,73,30.45,10.0,NE,4.6,-,N/A,,Clear,40,2013-01-01 20:58:00
1:58 PM,40.5,32.5,73,30.45,10.0,NE,5.8,-,N/A,,Clear,50,2013-01-01 21:58:00
2:58 PM,39.7,32.4,75,30.44,10.0,NE,3.5,-,N/A,,Clear,40,2013-01-01 22:58:00
3:58 PM,38.5,31.8,77,30.43,10.0,East,1.2,-,N/A,,Clear,80,2013-01-01 23:58:00
4:58 PM,34.9,32.5,91,30.43,10.0,Calm,Calm,-,N/A,,Clear,0,2013-01-02 00:58:00
5:58 PM,29.3,28.6,97,30.42,10.0,SSE,2.3,-,N/A,,Clear,160,2013-01-02 01:58:00
6:58 PM,28.8,28.6,99,30.41,10.0,South,2.3,-,N/A,,Clear,180,2013-01-02 02:58:00
7:58 PM,28.6,28.4,99,30.40,10.0,South,3.5,-,N/A,,Clear,190,2013-01-02 03:58:00
8:53 PM,28.4,28.4,100,30.36,1.5,Calm,Calm,-,N/A,,Clear,0,2013-01-02 04:53:00
8:58 PM,27.9,27.7,99,30.39,1.5,Calm,Calm,-,N/A,,Clear,0,2013-01-02 04:58:00
9:03 PM,28.4,28.4,100,30.36,1.8,Calm,Calm,-,N/A,,Clear,0,2013-01-02 05:03:00
9:08 PM,26.6,26.6,100,30.36,1.5,Calm,Calm,-,N/A,,Clear,0,2013-01-02 05:08:00
9:13 PM,26.6,26.6,100,30.37,2.0,Calm,Calm,-,N/A,,Clear,0,2013-01-02 05:13:00
9:18 PM,26.6,26.6,100,30.37,7.0,South,2.3,-,N/A,,Clear,170,2013-01-02 05:18:00
9:58 PM,27.3,27.0,99,30.39,6.0,Calm,Calm,-,N/A,,Clear,0,2013-01-02 05:58:00
10:58 PM,26.4,26.2,99,30.38,9.0,South,2.3,-,N/A,,Clear,180,2013-01-02 06:58:00
11:58 PM,25.5,25.2,99,30.36,10.0,SSW,2.3,-,N/A,,Clear,210,2013-01-02 07:58:00